User: anonymous
Location: Trois-Rivi�res
(46.3500°N, 72.5500°W)
Time: 05:38:06
(UTC-04:00)
Language:

SJ-11-01 - Orbit

View from above orbital plane
View from above orbital plane
View from above satellite
View from above satellite

Ground track
Ground track

The orbit data is extracted from the following two-line orbital elements,

1 36088U 09061A   14260.83158643  .00000583  00000-0  13033-3 0  3894
2 36088 098.0261 306.2991 0011824 144.5345 215.6639 14.60130551258255
Epoch (UTC): 17 September 2014 19:57:29
Eccentricity: 0.0011824
inclination: 98.0261°
perigee height: 684 km
apogee height: 701 km
right ascension of ascending node: 306.2991°
argument of perigee: 144.5345°
revolutions per day: 14.60130551
mean anomaly at epoch: 215.6639°
orbit number at epoch: 25825

The dashed part of the orbit path shows where the satellite is in the earth's shadow,  

DLR